Regional Weather Roundup
Issued by NWS

Home | Current Version | Previous Version | Graphics & Text | Print | Product List | Glossary On
Versions: 1 2 3 4 5 6 7 8 9 10 11 12 13 14 15 16 17 18 19 20 21 22 23 24 25 26 27 28 29 30 31 32 33 34 35 36 37 38 39 40 41 42 43 44 45 46 47 48 49 50
000
ASUS43 KBIS 210102
RWRND

NORTH DAKOTA REGIONAL WEATHER ROUNDUP
NATIONAL WEATHER SERVICE BISMARCK ND
800 PM CDT SUN AUG 20 2017

NOTE: "FAIR" INDICATES FEW OR NO CLOUDS BELOW 12,000 FEET WITH NO
SIGNIFICANT WEATHER AND/OR OBSTRUCTIONS TO VISIBILITY.


NDZ001>003-009>011-017-210200-
NORTHWEST NORTH DAKOTA

CITY           SKY/WX    TMP DP  RH WIND       PRES   REMARKS
WILLISTON      MOCLDY    75  44  33 SE8       29.96S
MINOT          CLEAR     74  41  30 SE6       29.98S
MINOT AFB      CLEAR     71  41  34 SE5       29.96F
$$

NDZ018>021-031>035-040>046-210200-
SOUTHWEST NORTH DAKOTA

CITY           SKY/WX    TMP DP  RH WIND       PRES   REMARKS
BISMARCK       CLOUDY    67  53  61 SW3       30.03F
DICKINSON      PTCLDY    66  45  46 SE13      30.00F
GARRISON         N/A     67  49  52 S6        30.00F
HETTINGER ARPT CLEAR     67  45  45 E14       30.03S
$$

NDZ004>008-012>016-024-026-027-054-210200-
NORTHEAST NORTH DAKOTA

CITY           SKY/WX    TMP DP  RH WIND       PRES   REMARKS
GRAND FORKS    PTCLDY    72  51  47 W3        29.98R
GRND FRKS AFB  CLEAR     71  51  47 CALM      29.99S
$$

NDZ022-023-025-028>030-036>039-047>053-210200-
SOUTHEAST NORTH DAKOTA

CITY           SKY/WX    TMP DP  RH WIND       PRES   REMARKS
FARGO          CLEAR     70  50  49 SW5       30.00S
JAMESTOWN      CLOUDY    67  58  72 CALM      30.02R
$$





USA.gov is the U.S. government's official web portal to all federal, state and local government web resources and services.